Tracking 25372 objects as of 24-Jan-2022
HD Live streaming from Space Station
objects crossing your sky now

ONEWEB-0093

Track ONEWEB-0093 now!
10-day predictions
ONEWEB-0093 is classified as:


NORAD ID: 45444
Int'l Code: 2020-020W
Perigee: 1,223.7 km
Apogee: 1,225.9 km
Inclination: 87.9 °
Period: 109.8 minutes
Semi major axis: 7595 km
RCS: Unknown
Launch date: March 21, 2020
Source: United Kingdom (UK)
Launch site: TYURATAM MISSILE AND SPACE COMPLEX (TTMTR)
aabbcc
Your satellite tracking list
Your tracking list is empty




NASA's NSSDC Master Catalog

Two Line Element Set (TLE):
1 45444U 20020W   22024.09886378  .00000484  00000-0  13287-2 0  9993
2 45444  87.8918 340.2095 0001444  82.1763 277.9529 13.11416878 92313
Source of the keplerian elements: AFSPC